Find SPADEX-A

NORAD ID: 62459 Int'l Des: 2024-253 Owner: ISRO Country: IN operational
LEOCIRCULAR

リアルタイム位置

3D地球を読み込み中...

SPADEX-Aについて

説明を読み込み中...

次回通過

Passes for default location (London). Set your location on the main map for personalized predictions.

高度履歴

Loading altitude history...

軌道要素

1 62459U 24253A 26107.28221936 .00034949 00000-0 39351-3 0 9994
2 62459 54.9942 273.4073 0005072 63.2293 296.9264 15.62277778 72993
Epoch: Apr 17, 2026 • Age: 12 hours

現在のステータス

高度 380.9 km
速度 7.69 km/s
衛星直下点 37.26°N, 168.16°E
打ち上げ日 Dec 30, 2024
運用期間 1.2 years
タイプ other

技術仕様

分類 Payload
質量 220.00 kg
乾燥質量 180.00 kg
総質量 220.00 kg
長さ 1.00 m
直径 0.50 m
スパン 2.50 m
形状 Box+ 2 pan
製造者 ISRO
バスタイプ SPADEX
フェーズステータス In Orbit
所有者/国 ISRO/IN

Most Searched